Weather History for Lamoni, IA

Change the Weather History Date:

Thursday, March 27, 2014

  Actual Average Record
Temperature  
Mean Temperature 46 °F 45 °F  
Max Temperature 58 °F 55 °F 80 °F (1989)
Min Temperature 34 °F 35 °F 17 °F (1970)
Degree Days  
Heating Degree Days 19 20  
Month to date heating degree days 858 696  
Since 1 July heating degree days 6132 5413  
Cooling Degree Days 0 0  
Month to date cooling degree days 0 0  
Year to date cooling degree days 0 0  
Moisture  
Dew Point 43 °F    
Average Humidity 91    
Maximum Humidity 100    
Minimum Humidity 82    
Precipitation  
Precipitation 0.30 in 0.09 in 0.80 in (1975)
Month to date precipitation 1.07 1.89  
Sea Level Pressure  
Sea Level Pressure 29.48 in    
Wind  
Wind Speed 18 mph (South)    
Max Wind Speed 35 mph    
Max Gust Speed 43 mph    
Visibility 5 miles    
Events Rain , Thunderstorm    
T = Trace of Precipitation, MM = Missing Value Source: NWS Daily Summary

Daily Weather History Graph

Daily Weather History Graph

Search for Another Location

Airport:

Trip Planner

Search our weather history database for the weather conditions in past years. The results will help you decide how hot, cold, wet, or windy it might be!

Date:

Astronomy

Mar. 27, 2014 Rise Set
Actual Time 7:07 AM CDT 7:35 PM CDT
Civil Twilight 6:39 AM CDT 8:02 PM CDT
Nautical Twilight 6:07 AM CDT 8:34 PM CDT
Astronomical Twilight 5:34 AM CDT 9:08 PM CDT
Moon 5:00 AM CDT (3/27) 4:22 PM CDT (3/27)
Length of Visible Light 13h 22m
Length of Day
12h 27m
Waning Crescent, 13% of the Moon is Illuminated
Mar 27
Waning Crescent
Mar 30
New
Apr 7
First Quarter
Apr 15
Full
Apr 22
Last Quarter

Hourly Weather History & Observations

Time (CDT) Temp. Windchill Dew Point Humidity Pressure Visibility Wind Dir Wind Speed Gust Speed Precip Events Conditions
12:53 AM 41.0 °F 31.6 °F 37.9 °F 89% 29.72 in - South 20.7 mph 31.1 mph 0.01 in   Overcast
1:39 AM 41.0 °F 31.9 °F 39.0 °F 93% 29.68 in - South 19.6 mph 26.5 mph 0.00 in   Overcast
1:53 AM 41.0 °F 32.2 °F 39.0 °F 93% 29.69 in 6.0 mi South 18.4 mph 26.5 mph 0.00 in Rain Light Rain
2:53 AM 39.9 °F 31.8 °F 39.0 °F 97% 29.65 in - SSE 15.0 mph 23.0 mph 0.02 in Rain Light Rain
3:34 AM 39.9 °F 32.5 °F 39.0 °F 97% 29.61 in 4.0 mi SSE 12.7 mph 21.9 mph 0.01 in Rain Light Rain
3:53 AM 39.9 °F 32.1 °F 39.0 °F 97% 29.61 in 3.0 mi SSE 13.8 mph 21.9 mph 0.02 in Rain Light Rain
4:53 AM 41.0 °F 33.9 °F 39.0 °F 93% 29.58 in - SSE 12.7 mph 20.7 mph 0.00 in   Overcast
5:39 AM 41.0 °F 34.3 °F 39.0 °F 93% 29.55 in - SSE 11.5 mph 17.3 mph 0.00 in Rain , Thunderstorm Light Thunderstorms and Rain
5:53 AM 41.0 °F 33.5 °F 39.0 °F 93% 29.55 in - SSE 13.8 mph 19.6 mph 0.00 in   Overcast
6:10 AM 41.0 °F 33.5 °F 39.0 °F 93% 29.54 in 4.0 mi SSE 13.8 mph 21.9 mph N/A   Overcast
6:28 AM 41.0 °F 33.1 °F 39.0 °F 93% 29.53 in 3.0 mi SSE 15.0 mph 23.0 mph N/A   Overcast
6:53 AM 41.0 °F 32.8 °F 39.0 °F 93% 29.54 in - SSE 16.1 mph - N/A   Overcast
7:06 AM 41.0 °F 32.2 °F 39.0 °F 93% 29.52 in - SE 18.4 mph 21.9 mph N/A   Overcast
7:25 AM 41.0 °F 33.5 °F 39.0 °F 93% 29.52 in 4.0 mi SSE 13.8 mph 21.9 mph N/A   Overcast
7:44 AM 42.1 °F 34.9 °F 39.9 °F 92% 29.52 in 2.5 mi SSE 13.8 mph - N/A   Overcast
7:53 AM 42.1 °F 35.7 °F 39.9 °F 92% 29.54 in 2.5 mi SSE 11.5 mph 20.7 mph N/A   Overcast
8:13 AM 42.1 °F 35.7 °F 39.9 °F 92% 29.52 in 3.0 mi SSE 11.5 mph 20.7 mph 0.00 in Rain Light Rain
8:17 AM 42.1 °F 35.2 °F 41.0 °F 96% 29.52 in 2.5 mi SSE 12.7 mph - 0.01 in   Overcast
8:32 AM 43.0 °F 35.7 °F 41.0 °F 93% 29.51 in 1.8 mi SSE 15.0 mph - 0.01 in   Overcast
8:53 AM 43.0 °F 36.4 °F 42.1 °F 97% 29.52 in 1.8 mi SE 12.7 mph - 0.01 in   Overcast
8:58 AM 43.0 °F 36.0 °F 42.1 °F 97% 29.50 in - SE 13.8 mph - N/A   Overcast
9:53 AM 45.0 °F 38.9 °F 43.0 °F 93% 29.48 in 2.5 mi SE 12.7 mph - N/A   Overcast
10:00 AM 45.0 °F 38.5 °F 44.1 °F 97% 29.46 in - SE 13.8 mph - N/A   Overcast
10:13 AM 46.0 °F 39.9 °F 44.1 °F 93% 29.46 in - SSE 13.8 mph 24.2 mph N/A   Overcast
10:53 AM 46.9 °F - 44.1 °F 90% 29.47 in - SSE 13.8 mph - N/A   Overcast
11:53 AM 48.0 °F - 45.0 °F 89% 29.44 in 5.0 mi SSE 13.8 mph - N/A   Overcast
12:53 PM 48.9 °F - 46.9 °F 93% 29.41 in - SE 16.1 mph 21.9 mph N/A   Overcast
1:21 PM 50.0 °F - 48.0 °F 93% 29.38 in - SSE 16.1 mph - N/A   Overcast
1:53 PM 52.0 °F - 48.9 °F 89% 29.37 in 8.0 mi SSE 13.8 mph - N/A   Overcast
2:21 PM 53.1 °F - 51.1 °F 93% 29.35 in 8.0 mi SSE 12.7 mph 20.7 mph N/A   Overcast
2:34 PM 54.0 °F - 51.1 °F 90% 29.34 in - SSE 17.3 mph 25.3 mph N/A   Overcast
2:53 PM 55.9 °F - 52.0 °F 87% 29.33 in - SSE 16.1 mph 26.5 mph N/A   Overcast
2:59 PM 55.9 °F - 52.0 °F 87% 29.32 in - SSE 17.3 mph 26.5 mph N/A   Mostly Cloudy
3:19 PM 55.9 °F - 51.1 °F 84% 29.30 in - SE 18.4 mph 23.0 mph N/A   Mostly Cloudy
3:39 PM 54.0 °F - 51.1 °F 90% 29.28 in - SE 13.8 mph 21.9 mph 0.00 in Rain , Thunderstorm Light Thunderstorms and Rain
3:48 PM 53.6 °F - 51.8 °F 94% 29.28 in - SSE 15.0 mph 24.2 mph 0.00 in Rain , Thunderstorm Light Thunderstorms and Rain
3:53 PM 54.0 °F - 52.0 °F 93% 29.27 in - SE 10.4 mph 23.0 mph 0.03 in Rain , Thunderstorm Light Thunderstorms and Rain
4:17 PM 55.0 °F - 52.0 °F 89% 29.27 in 1.8 mi SSE 9.2 mph - 0.20 in Rain , Thunderstorm Thunderstorms and Rain
4:20 PM 55.0 °F - 52.0 °F 89% 29.27 in 3.0 mi SSE 10.4 mph - 0.21 in Rain , Thunderstorm Light Thunderstorms and Rain
4:49 PM 57.2 °F - 53.6 °F 88% 29.28 in - SSW 13.8 mph - 0.22 in   Mostly Cloudy
4:53 PM 57.9 °F - 53.1 °F 84% 29.29 in - SSW 21.9 mph 34.5 mph 0.22 in   Mostly Cloudy
5:12 PM 55.9 °F - 48.0 °F 75% 29.31 in - WSW 28.8 mph 41.4 mph N/A   Mostly Cloudy
5:22 PM 52.0 °F - 46.9 °F 83% 29.33 in - West 26.5 mph 39.1 mph N/A   Mostly Cloudy
5:29 PM 48.0 °F - 45.0 °F 89% 29.35 in - West 25.3 mph 38.0 mph N/A   Mostly Cloudy
5:36 PM 46.0 °F 36.9 °F 42.1 °F 86% 29.36 in - West 28.8 mph 38.0 mph N/A   Overcast
5:53 PM 43.0 °F 32.7 °F 41.0 °F 93% 29.40 in - West 28.8 mph 35.7 mph N/A   Overcast
6:53 PM 39.9 °F 28.8 °F 37.0 °F 89% 29.48 in - West 27.6 mph 34.5 mph N/A   Overcast
7:12 PM 39.9 °F 28.4 °F 36.0 °F 86% 29.48 in 10.0 mi West 29.9 mph 38.0 mph N/A   Overcast
7:53 PM 37.9 °F 26.8 °F 35.1 °F 89% 29.55 in 8.0 mi West 24.2 mph 33.4 mph N/A   Overcast
8:01 PM 37.9 °F 26.6 °F 35.1 °F 89% 29.54 in 8.0 mi West 25.3 mph 39.1 mph N/A   Overcast
8:53 PM 37.0 °F 25.1 °F 34.0 °F 89% 29.61 in 9.0 mi West 26.5 mph 36.8 mph N/A   Overcast
9:53 PM 36.0 °F 24.2 °F 32.0 °F 86% 29.67 in - WNW 24.2 mph 38.0 mph N/A   Overcast
10:18 PM 35.1 °F 21.8 °F 30.9 °F 85% 29.67 in - WNW 29.9 mph 36.8 mph N/A   Overcast
10:53 PM 35.1 °F 23.5 °F 30.9 °F 85% 29.71 in 10.0 mi WNW 21.9 mph 29.9 mph N/A   Overcast
11:53 PM 34.0 °F 22.4 °F 30.9 °F 89% 29.76 in - WNW 20.7 mph 27.6 mph N/A   Overcast